Regional Weather Roundup
Issued by NWS

Home | Current Version | Previous Version | Graphics & Text | Print | Product List | Glossary On
Versions: 1 2 3 4 5 6 7 8 9 10 11 12 13 14 15 16 17 18 19 20 21 22 23 24 25 26 27 28 29 30 31 32 33 34 35 36 37 38 39 40 41 42 43 44 45 46 47 48 49 50
000
ASUS43 KTOP 242059
RWRKS

WEATHER ROUNDUP FOR KANSAS
NATIONAL WEATHER SERVICE GOODLAND KS
400 PM CDT FRI OCT 24 2014

NOTE:  "FAIR" INDICATES FEW OR NO CLOUDS BELOW 12,000 FEET WITH NO
SIGNIFICANT WEATHER AND/OR OBSTRUCTIONS TO VISIBILITY.

KSZ001>006-013>018-027>032-041>047-242200-
NORTHWEST KANSAS

CITY           SKY/WX    TMP DP  RH WIND       PRES   REMARKS
GOODLAND       SUNNY     89  26  10 VRB3      30.05F
HAYS           SUNNY     88  52  29 W7        29.97S
HILL CITY      SUNNY     88  34  14 N6        29.98S
RUSSELL        SUNNY     86  54  33 W8        29.96R
$$

KSZ061>065-074>080-084>089-242200-
SOUTHWEST KANSAS

CITY           SKY/WX    TMP DP  RH WIND       PRES   REMARKS
DODGE CITY     MOSUNNY   85  45  24 SW8       30.02F
ELKHART          N/A     87  38  17 SW5         N/A
GARDEN CITY    PTSUNNY   86  41  20 SW13      30.02F
GREAT BEND     SUNNY     84  55  37 SW13      29.97S
LIBERAL        SUNNY     88  43  20 S9        30.05S
$$

KSZ066>073-081>083-090>101-242200-
SOUTHEAST KANSAS

CITY           SKY/WX    TMP DP  RH WIND       PRES   REMARKS
CHANUTE        CLOUDY    73  62  68 SW10      30.01F
COFFEYVILLE    CLOUDY    74  62  66 S9        30.02F
HUTCHINSON     MOSUNNY   84  60  44 S12G20    29.98F
NEWTON         MOSUNNY   81  61  50 S15       30.01S
PARSONS        CLOUDY    75  62  64 S7        30.03F
WICHITA INTL   MOSUNNY   83  61  47 SW10      29.99F
WICHITA JABRA  SUNNY     81  61  50 SW10      29.99F
WINFIELD       SUNNY     80  63  55 SW12      30.01F
$$

KSZ007>012-019>026-033>040-048>060-102>105-242200-
NORTHEAST KANSAS

CITY           SKY/WX    TMP DP  RH WIND       PRES   REMARKS
CONCORDIA      MOSUNNY   82  61  48 SW13      29.93F
EMPORIA        PTSUNNY   79  60  52 SW12      29.98F
LAWRENCE       CLOUDY    75  62  64 SW10      29.95F
MANHATTAN      CLOUDY    79  63  57 SW13      29.93F
OLATHE IND     CLOUDY    75  63  66 S12       29.98F
OLATHE EXE     PTSUNNY   75  63  66 SW12      29.97S
SALINA         MOSUNNY   84  62  47 S13       29.95F
TOPEKA BILLARD CLOUDY    79  64  60 SW13      29.94F
TOPEKA FORBES  CLOUDY    78  64  61 SW10      29.95F
$$



USA.gov is the U.S. government's official web portal to all federal, state and local government web resources and services.